Regional Weather Roundup
Issued by NWS

Home | Current Version | Previous Version | Graphics & Text | Print | Product List | Glossary On
Versions: 1 2 3 4 5 6 7 8 9 10 11 12 13 14 15 16 17 18 19 20 21 22 23 24 25 26 27 28 29 30 31 32 33 34 35 36 37 38 39 40 41 42 43 44 45 46 47 48 49 50
000
ASUS43 KMKX 270600
RWRWI

WISCONSIN REGIONAL WEATHER ROUNDUP
NATIONAL WEATHER SERVICE MILWAUKEE/SULLIVAN WI
100 AM CDT WED AUG 27 2014

NOTE: "FAIR" INDICATES FEW OR NO CLOUDS BELOW 12,000 FEET WITH NO
SIGNIFICANT WEATHER AND/OR OBSTRUCTIONS TO VISIBILITY.

WIZ001-002-006>008-014>016-023>028-270700-
NORTHWEST WISCONSIN

CITY           SKY/WX    TMP DP  RH WIND       PRES   REMARKS
SUPERIOR ARPT  CLOUDY    57  53  88 SW3       30.20R
ASHLAND        CLOUDY    58  53  84 W3        30.19R
6HR MIN TEMP:  53; 6HR MAX TEMP:  66;

HAYWARD        CLOUDY    57  56  96 CALM      30.21R
6HR MIN TEMP:  56; 6HR MAX TEMP:  67; 6HR PCP:  0.03;

SIREN          CLOUDY    58  56  94 CALM      30.20S
RICE LAKE      RAIN      60  56  85 NW5       30.21R
6HR MIN TEMP:  60; 6HR MAX TEMP:  66; 6HR PCP:  0.01;

LADYSMITH      MOCLDY    60  57  88 CALM      30.20R
EAU CLAIRE     NOT AVBL
MENOMONIE      LGT RAIN  63  58  83 CALM      30.19R
6HR MIN TEMP:  63; 6HR MAX TEMP:  71;

NEW RICHMOND   CLOUDY    61  54  75 CALM      30.20R
OSCEOLA        LGT RAIN  60  59  95 CALM      30.22R
$$

WIZ003>005-009-010-017-018-270700-
NORTH CENTRAL WISCONSIN

CITY           SKY/WX    TMP DP  RH WIND       PRES   REMARKS
WOODRUFF       FAIR      57  55  92 CALM      30.18R
RHINELANDER    MOCLDY    55  53  93 CALM      30.18S
6HR MIN TEMP:  53; 6HR MAX TEMP:  67;

EAGLE RIVER    FAIR      50  50 100 CALM      30.17R
LAND O LAKES   FAIR      49  48  99 CALM      30.18R
PHILLIPS       MOCLDY    55  54  95 CALM      30.17S
TOMAHAWK       FAIR      51  50  96 CALM      30.18S
MEDFORD        FAIR      56  55  94 CALM      30.17S
MERRILL        FAIR      56  55  94 CALM      30.17S
$$

WIZ029-030-035-036-043>047-270700-
CENTRAL WISCONSIN

CITY           SKY/WX    TMP DP  RH WIND       PRES   REMARKS
WAUSAU         FAIR      59  55  87 NW3       30.15S
6HR MIN TEMP:  59; 6HR MAX TEMP:  69;

MOSINEE        FAIR      59  55  88 N5        30.17S
MARSHFIELD     FAIR      59  55  87 N8        30.17R
6HR MIN TEMP:  57; 6HR MAX TEMP:  67;

STEVENS POINT  FAIR      58  54  86 CALM      30.17R
WAUPACA        FAIR      63  58  83 NW3       30.15S
WAUTOMA        NOT AVBL
WISC RAPIDS    FAIR      62  55  77 NW3       30.17S
6HR MIN TEMP:  60; 6HR MAX TEMP:  67;

CAMP DOUGLAS   NOT AVBL
$$

WIZ011>013-019>022-031-037>040-048>050-270700-
NORTHEAST WISCONSIN

CITY           SKY/WX    TMP DP  RH WIND       PRES   REMARKS
ANTIGO         FAIR      56  53  90 N3        30.17R
STURGEON BAY   MOCLDY    61  55  82 NE12      30.14R
6HR MIN TEMP:  61; 6HR MAX TEMP:  70;

GREEN BAY      FAIR      61  56  83 N8        30.15R
6HR MIN TEMP:  59; 6HR MAX TEMP:  71;

MANITOWOC      NOT AVBL
APPLETON       FAIR      59  55  88 NW8       30.14S
CLINTONVILLE   FAIR      61  55  82 N3        30.15R
OSHKOSH        LGT RAIN  64  58  80 NW6       30.13S
6HR MIN TEMP:  63; 6HR MAX TEMP:  72; 6HR PCP: TRACE;

$$

WIZ032>034-041-042-053>061-270700-
SOUTHWEST WISCONSIN

CITY           SKY/WX    TMP DP  RH WIND       PRES   REMARKS
LA CROSSE      FAIR      65  59  81 N3        30.16R
6HR MIN TEMP:  64; 6HR MAX TEMP:  72;

SPARTA         FAIR      60  58  92 CALM      30.18R
VIROQUA        MOCLDY    62  58  88 CALM      30.17S
BOSCOBEL       MOCLDY    65  62  90 CALM      30.15S
6HR MIN TEMP:  65; 6HR MAX TEMP:  75;

PRAIRIE DU CHI MOCLDY    66  60  80 CALM      30.15R
PLATTEVILLE    FAIR      65  62  89 N5        30.16S
$$

WIZ056-057-062-063-064-067-068-270700-
SOUTH CENTRAL WISCONSIN

CITY           SKY/WX    TMP DP  RH WIND       PRES   REMARKS
BARABOO/DELLS  MOCLDY    64  55  74 CALM      30.15S
LONE ROCK      NOT AVBL
WATERTOWN      FAIR      63  58  84 NE3       30.14R
MADISON        LGT RAIN  64  58  80 NW3       30.14S
6HR MIN TEMP:  62; 6HR MAX TEMP:  75; 6HR PCP: TRACE;

MIDDLETON      CLOUDY    64  62  93 CALM      30.15S
MONROE         FAIR      64  61  88 N6        30.14R
JANESVILLE     FAIR      66  63  88 CALM      30.13S
$$

WIZ051-052-058>065-066-070>072-270700-
SOUTHEAST WISCONSIN

CITY           SKY/WX    TMP DP  RH WIND       PRES   REMARKS
MILWAUKEE      MOCLDY    67  58  72 N5        30.12S
6HR MIN TEMP:  66; 6HR MAX TEMP:  76;

WAUKESHA       FAIR      61  55  82 CALM      30.15R
MILWAUKEE/TIMM FAIR      63  55  77 N5        30.13F
RACINE         FAIR      64  61  90 NW3       30.14S
6HR MIN TEMP:  63; 6HR MAX TEMP:  74;

BURLINGTON     FAIR      60  60 100 CALM      30.13R
KENOSHA        FAIR      64  61  90 CALM      30.13S
6HR MIN TEMP:  62; 6HR MAX TEMP:  75;

FOND DU LAC    FAIR      63  56  78 NW5       30.14S
6HR MIN TEMP:  62; 6HR MAX TEMP:  72;

SHEBOYGAN      FAIR      61  58  90 W3        30.13S
6HR MIN TEMP:  57; 6HR MAX TEMP:  71;

WEST BEND      FAIR      61  55  82 CALM      30.14S
JUNEAU         FAIR      62  57  84 N3        30.15S
$$

LSZ147-162-270700-
LAKE SUPERIOR

STATION/POSITION TIME  TEMP    WIND        PRES    WAVE
                       AIR SEA DIR/SP/G            HT/PER
                 (UTC) (F)     (DEG/KT/KT) (MB)    (FT/S)
W MID LAKE BUOY  0450   58 55  280/  6/  6 1020.6R   1/ 4
DEVILS ISLAND    0500   61      40/  3/  3 1021.4R
PORT WING        0540   60     230/  2/  4 1022.4R
SAXON HARBOR     0500   57      CALM  /  3 1021.3
$$

LMZ867-665-643>646-270700-
LAKE MICHIGAN

STATION/POSITION TIME  TEMP    WIND        PRES    WAVE
                       AIR SEA DIR/SP/G            HT/PER
                 (UTC) (F)     (DEG/KT/KT) (MB)    (FT/S)
N MID LAKE BUOY  0450   62 66   10/ 14/ 16 1019.9R   2/ 3
NORTHPORT PIER   0500   63      10/  8/  9 1020.3S
SISTER BAY       0541   62      30/  6/  9   N/A
KEWAUNEE LAKESHO 0500   61     300/  1/  2 1018.8S
SHEBOYGAN LAKESH 0500   65 66  290/  6/  7 1020.2R
ATWATER BUOY     0500   68     330/  8/ 10 1020.7F
MILWAUKEE LAKESH 0500   69     330/  8/ 10   N/A
S MID LAKE BUOY  0450   68 69  360/  4/  6 1019.7R   0
KENOSHA   LAKESH 0500   68        CALM     1019.6R
$$

TC  - TEMPERATURE IN CELSIUS
VSB - VISIBILITY IN STATUTE MILES
WCI - WIND CHILL INDEX
HX  - HEAT INDEX




USA.gov is the U.S. government's official web portal to all federal, state and local government web resources and services.